Orbital Elements at Epoch 2459200.5 (2020-Dec-17.0) TDB
Reference: JPL 16 (heliocentric ecliptic J2000)
Element | Value | Uncertainty (1-sigma) | Units |
e | .2404484037351822 | 4.3993e-08 | |
a | 2.383499005305893 | 1.1719e-08 | au |
q | 1.810390474175696 | 1.0707e-07 | au |
i | 2.751303912011591 | 4.9619e-06 | deg |
node | 242.8902828931319 | 8.6355e-05 | deg |
peri | 121.6238165447544 | 8.6942e-05 | deg |
M | 288.4241504440873 | 1.4657e-05 | deg |
tp | 2459467.729808303147 (2021-Sep-10.22980830) | 5.6294e-05 | TDB |
period | 1344.066910641171 3.68 | 9.9122e-06 2.714e-08 | d yr |
n | .267843808332627 | 1.9753e-09 | deg/d |
Q | 2.956607536436089 | 1.4536e-08 | au |
|
| | Orbit Determination Parameters
Additional Information
|